Terminal Aerodrome Forecast
Issued by NWS

Home | Current Version | Previous Version | Text Only | Print | Product List | Glossary On
Versions: 1 2 3 4 5 6 7 8 9 10 11 12 13 14 15 16
000
FTUS43 KDTX 030853 AAA
TAFDET
TAF AMD
KDET 030853Z 0309/0406 25007KT 6SM BR OVC010
     FM031400 27010G15KT P6SM SCT015
     FM031600 29012G20KT P6SM SCT050
     FM040000 29008KT P6SM SKC=

USA.gov is the U.S. government's official web portal to all federal, state and local government web resources and services.